EYZ YRED-YRED

Flight info

Callsign EYZ
Flight time 0h 2m
Altitude 4000
Route AIRWORK OVER LAKESIDE RACEWAY NOT ABOVE 1500 UNTIL 1500 AEST
Aircraft EC45/M-SDFGR/S

Departure

Time 2026-04-26 04:19
Airport Redcliffe Airport (YRED)

Arrival

Time 2026-04-26 04:21
Airport Redcliffe Airport (YRED)
Time Latitude Longitude Altitude Speed Heading
2026-04-26 03:59 -27.20641 153.07117 13 ft 0 kts 344°
2026-04-26 04:15 -27.20637 153.07110 25 ft 3 kts 162°
2026-04-26 04:15 -27.20647 153.07168 33 ft 9 kts 47°
2026-04-26 04:15 -27.20622 153.07247 33 ft 9 kts 360°
2026-04-26 04:16 -27.20559 153.07241 23 ft 6 kts 324°
2026-04-26 04:16 -27.20532 153.07226 15 ft 0 kts 352°
2026-04-26 04:18 -27.20509 153.07228 25 ft 10 kts 340°
2026-04-26 04:18 -27.20515 153.07078 48 ft 35 kts 262°
2026-04-26 04:18 -27.20589 153.06706 143 ft 61 kts 261°
2026-04-26 04:18 -27.20729 153.06173 231 ft 80 kts 255°
2026-04-26 04:19 -27.20912 153.05526 574 ft 91 kts 259°
2026-04-26 04:19 -27.21071 153.04792 910 ft 101 kts 259°
2026-04-26 04:19 -27.21333 153.03922 875 ft 126 kts 246°
2026-04-26 04:19 -27.21704 153.03006 918 ft 130 kts 245°
2026-04-26 04:20 -27.22091 153.02078 973 ft 132 kts 244°
2026-04-26 04:20 -27.22496 153.01147 1032 ft 133 kts 243°
2026-04-26 04:20 -27.22917 153.00216 1089 ft 134 kts 243°
2026-04-26 04:20 -27.23064 152.99186 1058 ft 137 kts 271°
2026-04-26 04:21 -27.23007 152.98104 903 ft 127 kts 267°
2026-04-26 04:21 -27.22979 152.97279 523 ft 78 kts 275°
2026-04-26 04:21 -27.22917 152.96935 311 ft 38 kts 283°
2026-04-26 04:21 -27.22870 152.96635 217 ft 39 kts 285°
2026-04-26 04:22 -27.22842 152.96364 199 ft 34 kts 272°
2026-04-26 04:22 -27.22858 152.96114 207 ft 27 kts 276°
2026-04-26 04:22 -27.22772 152.96111 225 ft 13 kts 90°
2026-04-26 04:22 -27.22737 152.96226 225 ft 26 kts 90°
2026-04-26 04:23 -27.22817 152.96548 286 ft 57 kts 104°
2026-04-26 04:23 -27.22889 152.96950 253 ft 19 kts 22°
2026-04-26 04:23 -27.22887 152.96826 173 ft 33 kts 273°
2026-04-26 04:23 -27.22836 152.96747 172 ft 8 kts 263°
2026-04-26 04:24 -27.22894 152.96795 165 ft 14 kts 272°
2026-04-26 04:24 -27.22843 152.96520 212 ft 61 kts 289°
2026-04-26 04:24 -27.22777 152.96034 178 ft 28 kts 52°
2026-04-26 04:24 -27.22762 152.96131 161 ft 21 kts 107°
2026-04-26 04:25 -27.22708 152.96466 153 ft 53 kts 126°
2026-04-26 04:25 -27.22781 152.96689 215 ft 12 kts 217°
2026-04-26 04:25 -27.22821 152.96661 208 ft 21 kts 218°
2026-04-26 04:25 -27.22815 152.96467 215 ft 30 kts 234°
2026-04-26 04:26 -27.22748 152.96264 275 ft 24 kts 244°
2026-04-26 04:26 -27.22704 152.96129 318 ft 6 kts 205°
2026-04-26 04:26 -27.22812 152.96393 217 ft 65 kts 110°
2026-04-26 04:26 -27.22920 152.96870 226 ft 35 kts 54°
2026-04-26 04:27 -27.22912 152.96959 232 ft 5 kts 324°
2026-04-26 04:27 -27.22875 152.96934 231 ft 10 kts 280°
2026-04-26 04:27 -27.22840 152.96835 230 ft 18 kts 272°
2026-04-26 04:27 -27.22787 152.96667 239 ft 27 kts 273°
2026-04-26 04:28 -27.22724 152.96441 318 ft 34 kts 274°
2026-04-26 04:28 -27.22679 152.96183 460 ft 27 kts 143°
2026-04-26 04:28 -27.22783 152.96159 470 ft 30 kts 96°
2026-04-26 04:28 -27.22904 152.96498 367 ft 60 kts 85°
2026-04-26 04:29 -27.22897 152.96940 452 ft 40 kts 338°
2026-04-26 04:29 -27.22777 152.96895 382 ft 33 kts 256°
2026-04-26 04:29 -27.22771 152.96553 201 ft 41 kts 244°
2026-04-26 04:29 -27.22765 152.96345 155 ft 15 kts 257°
2026-04-26 04:30 -27.22730 152.96322 143 ft 7 kts 348°
2026-04-26 04:30 -27.22780 152.96336 176 ft 13 kts 92°
2026-04-26 04:30 -27.22850 152.96318 271 ft 10 kts 82°
2026-04-26 04:30 -27.22911 152.96398 355 ft 17 kts 64°
2026-04-26 04:31 -27.22923 152.96558 391 ft 25 kts 55°
2026-04-26 04:31 -27.22865 152.96771 416 ft 31 kts 33°
2026-04-26 04:31 -27.22721 152.96969 451 ft 31 kts 338°
2026-04-26 04:31 -27.22639 152.96971 493 ft 9 kts 209°
2026-04-26 04:32 -27.22778 152.96927 463 ft 31 kts 134°
2026-04-26 04:32 -27.22989 152.97057 501 ft 23 kts
2026-04-26 04:32 -27.23031 152.96888 377 ft 65 kts 301°
2026-04-26 04:32 -27.22782 152.96277 221 ft 86 kts 298°
2026-04-26 04:33 -27.22711 152.95761 455 ft 39 kts 181°
2026-04-26 04:33 -27.22720 152.95721 455 ft 32 kts 109°
2026-04-26 04:33 -27.22777 152.95984 355 ft 24 kts 98°
2026-04-26 04:33 -27.22755 152.96088 277 ft 10 kts 126°
2026-04-26 04:34 -27.22757 152.96235 238 ft 28 kts 97°
2026-04-26 04:34 -27.22756 152.96510 232 ft 43 kts 90°
2026-04-26 04:34 -27.22787 152.96856 372 ft 39 kts 85°
2026-04-26 04:34 -27.22691 152.96994 484 ft 15 kts 298°
2026-04-26 04:35 -27.22694 152.96864 452 ft 24 kts 225°
2026-04-26 04:35 -27.22872 152.96731 388 ft 40 kts 216°
2026-04-26 04:35 -27.23120 152.96590 344 ft 33 kts 277°
2026-04-26 04:35 -27.23136 152.96438 338 ft 17 kts 34°
2026-04-26 04:36 -27.23014 152.96376 321 ft 23 kts 348°
2026-04-26 04:36 -27.22855 152.96289 305 ft 28 kts 340°
2026-04-26 04:36 -27.22707 152.96269 323 ft 10 kts 166°
2026-04-26 04:36 -27.22794 152.96359 258 ft 36 kts 122°
2026-04-26 04:37 -27.22927 152.96652 241 ft 42 kts 95°
2026-04-26 04:37 -27.22935 152.96972 266 ft 38 kts 46°
2026-04-26 04:37 -27.22846 152.97159 439 ft 29 kts 296°
2026-04-26 04:37 -27.22647 152.96725 598 ft 71 kts 251°
2026-04-26 04:38 -27.22725 152.96225 658 ft 61 kts 203°
2026-04-26 04:38 -27.22969 152.96007 396 ft 30 kts 104°
2026-04-26 04:38 -27.23051 152.96040 280 ft 14 kts 53°
2026-04-26 04:38 -27.22972 152.96160 319 ft 29 kts 356°
2026-04-26 04:39 -27.22710 152.96266 437 ft 51 kts 28°
2026-04-26 04:39 -27.22613 152.96582 335 ft 32 kts 166°
2026-04-26 04:39 -27.22581 152.96693 322 ft 4 kts 228°
2026-04-26 04:39 -27.22637 152.96561 370 ft 33 kts 218°
2026-04-26 04:40 -27.22798 152.96265 544 ft 50 kts 162°
2026-04-26 04:40 -27.23027 152.96096 603 ft 24 kts 28°
2026-04-26 04:40 -27.23050 152.96105 292 ft 26 kts 40°
2026-04-26 04:40 -27.22875 152.96296 304 ft 31 kts 25°
2026-04-26 04:41 -27.22734 152.96427 332 ft 22 kts 37°
2026-04-26 04:41 -27.22633 152.96518 335 ft 18 kts 54°
2026-04-26 04:41 -27.22543 152.96622 331 ft 19 kts 77°
2026-04-26 04:41 -27.22483 152.96750 326 ft 17 kts 127°
2026-04-26 04:42 -27.22490 152.96854 317 ft 11 kts 187°
2026-04-26 04:42 -27.22577 152.96867 303 ft 18 kts 168°
2026-04-26 04:42 -27.22726 152.96821 294 ft 25 kts 192°
2026-04-26 04:42 -27.22869 152.96722 305 ft 23 kts 223°
2026-04-26 04:43 -27.22905 152.96563 303 ft 24 kts 284°
2026-04-26 04:43 -27.22754 152.96431 295 ft 29 kts 48°
2026-04-26 04:43 -27.22853 152.96636 229 ft 53 kts 94°
2026-04-26 04:43 -27.23050 152.96947 337 ft 44 kts 40°
2026-04-26 04:44 -27.22931 152.96995 380 ft 82 kts 302°
2026-04-26 04:44 -27.22805 152.96223 195 ft 87 kts 239°
2026-04-26 04:44 -27.22768 152.96114 245 ft 54 kts 79°
2026-04-26 04:44 -27.22792 152.96308 134 ft 11 kts 98°
2026-04-26 04:45 -27.22836 152.96422 86 ft 27 kts 64°
2026-04-26 04:45 -27.22807 152.96554 111 ft 18 kts 30°
2026-04-26 04:45 -27.22741 152.96632 115 ft 8 kts 266°
2026-04-26 04:45 -27.22766 152.96725 87 ft 23 kts 129°
2026-04-26 04:46 -27.22800 152.96745 99 ft 3 kts 120°
2026-04-26 04:46 -27.22773 152.96746 92 ft 9 kts 74°
2026-04-26 04:46 -27.22736 152.96765 96 ft 8 kts 71°
2026-04-26 04:46 -27.22795 152.96832 153 ft 17 kts 154°
2026-04-26 04:47 -27.22911 152.96687 183 ft 28 kts 253°
2026-04-26 04:47 -27.22894 152.96522 236 ft 34 kts 282°
2026-04-26 04:47 -27.22794 152.96261 297 ft 38 kts 295°
2026-04-26 04:47 -27.22650 152.95997 398 ft 41 kts 303°
2026-04-26 04:48 -27.22846 152.96124 327 ft 85 kts 84°
2026-04-26 04:48 -27.22959 152.96687 414 ft 60 kts 55°
2026-04-26 04:48 -27.23029 152.97081 513 ft 41 kts 346°
2026-04-26 04:49 -27.23033 152.97141 518 ft 54 kts 260°
2026-04-26 04:49 -27.22904 152.96378 174 ft 110 kts 277°
2026-04-26 04:49 -27.22675 152.95668 509 ft 84 kts 291°
2026-04-26 04:49 -27.22319 152.95796 728 ft 84 kts 88°
2026-04-26 04:50 -27.22646 152.96289 718 ft 80 kts 127°
2026-04-26 04:50 -27.22910 152.96724 453 ft 53 kts 63°
2026-04-26 04:50 -27.23004 152.96892 251 ft 19 kts 337°
2026-04-26 04:50 -27.22867 152.96526 126 ft 72 kts 290°
2026-04-26 04:51 -27.22792 152.96066 348 ft 38 kts 28°
2026-04-26 04:51 -27.22729 152.96583 166 ft 87 kts 135°
2026-04-26 04:51 -27.22989 152.96791 453 ft 38 kts 289°
2026-04-26 04:51 -27.22857 152.96399 324 ft 59 kts 324°
2026-04-26 04:52 -27.22724 152.96321 291 ft 46 kts 105°
2026-04-26 04:52 -27.22842 152.96664 292 ft 39 kts 103°
2026-04-26 04:52 -27.22949 152.96857 330 ft 18 kts 27°
2026-04-26 04:52 -27.22945 152.96810 247 ft 39 kts 291°
2026-04-26 04:53 -27.22841 152.96436 149 ft 54 kts 285°
2026-04-26 04:53 -27.22769 152.96121 345 ft 30 kts 111°
2026-04-26 04:53 -27.22684 152.96225 273 ft 48 kts 100°
2026-04-26 04:53 -27.22856 152.96636 238 ft 69 kts 134°
2026-04-26 04:54 -27.22975 152.96921 389 ft 3 kts 338°
2026-04-26 04:54 -27.22886 152.96651 173 ft 56 kts 283°
2026-04-26 04:54 -27.22821 152.96254 158 ft 44 kts 258°
2026-04-26 04:54 -27.22817 152.96022 179 ft 19 kts 11°
2026-04-26 04:55 -27.22718 152.96242 232 ft 37 kts 86°
2026-04-26 04:55 -27.22789 152.96551 380 ft 48 kts 136°
2026-04-26 04:55 -27.22960 152.96897 392 ft 51 kts 64°
2026-04-26 04:55 -27.22868 152.97133 469 ft 15 kts 292°
2026-04-26 04:56 -27.22794 152.97049 409 ft 28 kts 269°
2026-04-26 04:56 -27.22716 152.96766 332 ft 44 kts 261°
2026-04-26 04:56 -27.22677 152.96397 259 ft 52 kts 255°
2026-04-26 04:56 -27.22732 152.96033 277 ft 35 kts 127°
2026-04-26 04:57 -27.22812 152.96031 270 ft 29 kts 94°
2026-04-26 04:57 -27.22889 152.96339 366 ft 46 kts 81°
2026-04-26 04:57 -27.22897 152.96697 614 ft 45 kts 34°
2026-04-26 04:57 -27.22806 152.96963 642 ft 28 kts 324°
2026-04-26 04:58 -27.22736 152.97069 333 ft 9 kts 252°
2026-04-26 04:58 -27.22769 152.97044 265 ft 20 kts 257°
2026-04-26 04:58 -27.22687 152.96764 409 ft 50 kts 274°
2026-04-26 04:58 -27.22607 152.96416 330 ft 30 kts 246°
2026-04-26 04:59 -27.22567 152.96350 189 ft 16 kts 189°
2026-04-26 04:59 -27.22668 152.96497 390 ft 56 kts 123°
2026-04-26 04:59 -27.22963 152.96929 566 ft 51 kts 50°
2026-04-26 04:59 -27.22822 152.96728 406 ft 86 kts 269°
2026-04-26 05:00 -27.22774 152.96149 293 ft 55 kts 309°
2026-04-26 05:00 -27.22732 152.96249 194 ft 57 kts 106°
2026-04-26 05:00 -27.22756 152.96607 410 ft 46 kts 117°
2026-04-26 05:00 -27.22902 152.97112 599 ft 90 kts 110°
2026-04-26 05:01 -27.23144 152.97862 723 ft 94 kts 106°
2026-04-26 05:01 -27.23245 152.98414 1135 ft 97 kts 86°
2026-04-26 05:01 -27.23140 152.99231 1360 ft 121 kts 73°
2026-04-26 05:01 -27.22904 153.00232 1320 ft 141 kts 66°
2026-04-26 05:02 -27.22520 153.01275 1300 ft 146 kts 57°
2026-04-26 05:02 -27.22043 153.02116 1312 ft 112 kts 95°
2026-04-26 05:02 -27.22204 153.02405 1486 ft 114 kts 106°
2026-04-26 05:02 -27.22254 153.03347 1600 ft 125 kts 81°
2026-04-26 05:03 -27.22381 153.04367 1571 ft 126 kts 85°
2026-04-26 05:03 -27.22499 153.05366 1591 ft 133 kts 88°
2026-04-26 05:03 -27.22397 153.06184 1462 ft 87 kts 50°
2026-04-26 05:03 -27.22069 153.06877 1343 ft 120 kts 37°
2026-04-26 05:04 -27.21381 153.07239 1080 ft 113 kts 348°
2026-04-26 05:04 -27.20585 153.07143 609 ft 98 kts 332°
2026-04-26 05:04 -27.20078 153.07189 744 ft 52 kts 46°
2026-04-26 05:04 -27.20098 153.07526 596 ft 48 kts 155°
2026-04-26 05:05 -27.20412 153.07430 160 ft 44 kts 247°
2026-04-26 05:05 -27.20488 153.07258 89 ft 10 kts 269°
2026-04-26 05:05 -27.20537 153.07187 75 ft 20 kts 169°
2026-04-26 05:05 -27.20607 153.07206 14 ft 0 kts 179°